Time,TemperatureF,DewpointF,PressureIn,WindDirection,WindDirectionDegrees,WindSpeedMPH,WindSpeedGustMPH,Humidity,HourlyPrecipIn,Conditions,Clouds,dailyrainin,SoftwareType,DateUTC
2013-06-16 00:01:00,66.0,64.0,29.90,West,269,0.0,3.0,92,0.04,,,0.66,,2013-06-16 05:01:00,
2013-06-16 00:12:00,66.0,64.0,29.90,West,269,0.0,3.0,92,0.03,,,0.66,,2013-06-16 05:12:00,
2013-06-16 00:22:00,65.0,63.0,29.90,West,269,1.0,2.0,92,0.01,,,0.66,,2013-06-16 05:22:00,
2013-06-16 00:34:00,65.0,63.0,29.90,West,269,0.0,2.0,93,0.00,,,0.66,,2013-06-16 05:34:00,
2013-06-16 00:43:00,65.0,63.0,29.91,West,269,0.0,1.0,93,0.00,,,0.66,,2013-06-16 05:43:00,
2013-06-16 00:52:00,65.0,63.0,29.91,West,269,1.0,1.0,93,0.00,,,0.66,,2013-06-16 05:52:00,
2013-06-16 01:01:00,64.0,62.0,29.90,West,269,0.0,2.0,93,0.00,,,0.66,,2013-06-16 06:01:00,
2013-06-16 01:11:00,64.0,62.0,29.90,West,269,0.0,2.0,93,0.00,,,0.66,,2013-06-16 06:11:00,
2013-06-16 01:22:00,64.0,62.0,29.90,West,269,0.0,1.0,93,0.00,,,0.66,,2013-06-16 06:22:00,
2013-06-16 01:33:00,64.0,62.0,29.89,West,269,0.0,1.0,93,0.00,,,0.66,,2013-06-16 06:33:00,
2013-06-16 01:43:00,64.0,62.0,29.90,West,269,1.0,3.0,93,0.00,,,0.66,,2013-06-16 06:43:00,
2013-06-16 01:52:00,64.0,62.0,29.89,West,269,0.0,1.0,93,0.00,,,0.66,,2013-06-16 06:52:00,
2013-06-16 02:01:00,64.0,62.0,29.89,West,269,1.0,1.0,93,0.00,,,0.66,,2013-06-16 07:01:00,
2013-06-16 02:11:00,64.0,62.0,29.89,West,270,0.0,2.0,93,0.00,,,0.66,,2013-06-16 07:11:00,
2013-06-16 02:22:00,64.0,62.0,29.88,West,270,0.0,2.0,93,0.00,,,0.66,,2013-06-16 07:22:00,
2013-06-16 02:32:00,64.0,62.0,29.88,West,270,0.0,2.0,93,0.00,,,0.66,,2013-06-16 07:32:00,
2013-06-16 02:43:00,64.0,62.0,29.88,West,270,0.0,3.0,94,0.00,,,0.66,,2013-06-16 07:43:00,
2013-06-16 02:53:00,63.0,61.0,29.89,West,270,0.0,1.0,94,0.00,,,0.66,,2013-06-16 07:53:00,
2013-06-16 03:02:00,63.0,61.0,29.89,West,270,0.0,1.0,94,0.00,,,0.65,,2013-06-16 08:02:00,
2013-06-16 03:11:00,63.0,61.0,29.89,West,270,1.0,2.0,94,0.00,,,0.65,,2013-06-16 08:11:00,
2013-06-16 03:22:00,63.0,61.0,29.90,WNW,285,0.0,3.0,94,0.00,,,0.65,,2013-06-16 08:22:00,
2013-06-16 03:33:00,63.0,61.0,29.90,WNW,285,0.0,3.0,94,0.00,,,0.64,,2013-06-16 08:33:00,
2013-06-16 03:43:00,63.0,61.0,29.89,WNW,285,0.0,2.0,94,0.00,,,0.62,,2013-06-16 08:43:00,
2013-06-16 03:54:00,63.0,61.0,29.89,NW,314,0.0,4.0,94,0.00,,,0.60,,2013-06-16 08:54:00,
2013-06-16 04:02:00,63.0,61.0,29.89,NW,314,0.0,4.0,94,0.00,,,0.60,,2013-06-16 09:02:00,
2013-06-16 04:11:00,62.0,60.0,29.90,NW,314,0.0,1.0,94,0.00,,,0.59,,2013-06-16 09:11:00,
2013-06-16 04:22:00,62.0,60.0,29.90,NW,314,0.0,1.0,94,0.00,,,0.57,,2013-06-16 09:22:00,
2013-06-16 04:33:00,62.0,60.0,29.90,NW,314,0.0,1.0,94,0.00,,,0.54,,2013-06-16 09:33:00,
2013-06-16 04:43:00,62.0,60.0,29.91,NW,314,0.0,1.0,94,0.00,,,0.53,,2013-06-16 09:43:00,
2013-06-16 04:52:00,62.0,60.0,29.91,NW,314,2.0,2.0,94,0.00,,,0.52,,2013-06-16 09:52:00,
2013-06-16 05:01:00,62.0,60.0,29.91,NW,314,1.0,3.0,94,0.00,,,0.51,,2013-06-16 10:01:00,
2013-06-16 05:12:00,62.0,60.0,29.91,NW,314,0.0,1.0,94,0.00,,,0.49,,2013-06-16 10:12:00,
2013-06-16 05:22:00,61.0,59.0,29.91,WNW,296,0.0,2.0,94,0.00,,,0.47,,2013-06-16 10:22:00,
2013-06-16 05:33:00,61.0,59.0,29.92,WNW,296,0.0,2.0,94,0.00,,,0.46,,2013-06-16 10:33:00,
2013-06-16 05:43:00,61.0,59.0,29.92,WNW,296,0.0,2.0,94,0.01,,,0.46,,2013-06-16 10:43:00,
2013-06-16 05:53:00,61.0,59.0,29.92,WNW,296,0.0,1.0,94,0.01,,,0.45,,2013-06-16 10:53:00,
2013-06-16 06:02:00,60.0,58.0,29.93,WNW,296,0.0,1.0,94,0.01,,,0.45,,2013-06-16 11:02:00,
2013-06-16 06:11:00,60.0,58.0,29.93,WNW,296,1.0,2.0,94,0.01,,,0.44,,2013-06-16 11:11:00,
2013-06-16 06:22:00,60.0,58.0,29.93,WNW,296,0.0,2.0,94,0.01,,,0.44,,2013-06-16 11:22:00,
2013-06-16 06:34:00,60.0,58.0,29.93,WNW,296,0.0,1.0,94,0.01,,,0.42,,2013-06-16 11:34:00,
2013-06-16 06:43:00,60.0,58.0,29.93,WNW,296,0.0,1.0,94,0.00,,,0.42,,2013-06-16 11:43:00,
2013-06-16 06:52:00,61.0,59.0,29.93,WNW,296,0.0,1.0,94,0.00,,,0.41,,2013-06-16 11:52:00,
2013-06-16 07:02:00,61.0,59.0,29.94,WNW,288,0.0,3.0,94,0.00,,,0.41,,2013-06-16 12:02:00,
2013-06-16 07:12:00,62.0,60.0,29.93,WNW,288,0.0,2.0,94,0.00,,,0.41,,2013-06-16 12:12:00,
2013-06-16 07:22:00,62.0,61.0,29.94,WNW,284,2.0,4.0,95,0.00,,,0.41,,2013-06-16 12:22:00,
2013-06-16 07:32:00,63.0,62.0,29.94,West,259,0.0,3.0,95,0.00,,,0.41,,2013-06-16 12:32:00,
2013-06-16 07:42:00,63.0,62.0,29.94,WNW,285,1.0,3.0,95,0.00,,,0.41,,2013-06-16 12:42:00,
2013-06-16 07:53:00,64.0,63.0,29.94,WNW,285,0.0,3.0,95,0.00,,,0.41,,2013-06-16 12:53:00,
2013-06-16 08:01:00,64.0,63.0,29.94,WSW,240,1.0,4.0,95,0.00,,,0.41,,2013-06-16 13:01:00,
2013-06-16 08:11:00,64.0,63.0,29.94,WSW,240,1.0,4.0,95,0.00,,,0.41,,2013-06-16 13:11:00,
2013-06-16 08:22:00,65.0,64.0,29.93,WSW,250,2.0,3.0,95,0.00,,,0.41,,2013-06-16 13:22:00,
2013-06-16 08:34:00,66.0,65.0,29.93,WSW,242,2.0,5.0,95,0.00,,,0.41,,2013-06-16 13:34:00,
2013-06-16 08:42:00,66.0,65.0,29.93,NW,306,2.0,5.0,95,0.00,,,0.41,,2013-06-16 13:42:00,
2013-06-16 08:53:00,68.0,65.0,29.93,WSW,249,1.0,6.0,90,0.00,,,0.41,,2013-06-16 13:53:00,
2013-06-16 09:02:00,68.0,64.0,29.93,NW,321,3.0,7.0,87,0.00,,,0.41,,2013-06-16 14:02:00,
2013-06-16 09:12:00,69.0,65.0,29.93,WSW,255,0.0,5.0,87,0.00,,,0.41,,2013-06-16 14:12:00,
2013-06-16 09:22:00,70.0,64.0,29.93,NW,316,3.0,4.0,82,0.00,,,0.41,,2013-06-16 14:22:00,
2013-06-16 09:34:00,71.0,65.0,29.94,West,264,1.0,5.0,80,0.00,,,0.41,,2013-06-16 14:34:00,
2013-06-16 09:43:00,72.0,65.0,29.94,WSW,257,4.0,6.0,80,0.00,,,0.41,,2013-06-16 14:43:00,
2013-06-16 09:52:00,72.0,64.0,29.94,NNW,335,4.0,7.0,77,0.00,,,0.41,,2013-06-16 14:52:00,
2013-06-16 10:02:00,72.0,64.0,29.94,SW,218,0.0,7.0,77,0.00,,,0.41,,2013-06-16 15:02:00,
2013-06-16 10:12:00,73.0,65.0,29.94,WNW,288,4.0,6.0,77,0.00,,,0.41,,2013-06-16 15:12:00,
2013-06-16 10:23:00,74.0,64.0,29.93,NNW,342,7.0,7.0,71,0.00,,,0.41,,2013-06-16 15:23:00,
2013-06-16 10:33:00,75.0,62.0,29.93,WNW,298,3.0,6.0,65,0.00,,,0.41,,2013-06-16 15:33:00,
2013-06-16 10:43:00,75.0,62.0,29.93,WNW,296,3.0,9.0,64,0.00,,,0.41,,2013-06-16 15:43:00,
2013-06-16 10:52:00,76.0,62.0,29.93,NW,307,2.0,7.0,62,0.00,,,0.41,,2013-06-16 15:52:00,
2013-06-16 11:02:00,76.0,62.0,29.93,WNW,299,6.0,7.0,61,0.00,,,0.41,,2013-06-16 16:02:00,
2013-06-16 11:12:00,76.0,62.0,29.93,West,281,4.0,10.0,61,0.00,,,0.41,,2013-06-16 16:12:00,
2013-06-16 11:22:00,77.0,61.0,29.93,NNW,328,2.0,9.0,57,0.00,,,0.41,,2013-06-16 16:22:00,
2013-06-16 11:33:00,77.0,62.0,29.93,West,273,4.0,9.0,59,0.00,,,0.41,,2013-06-16 16:33:00,
2013-06-16 11:43:00,78.0,62.0,29.93,WNW,285,3.0,11.0,57,0.00,,,0.41,,2013-06-16 16:43:00,
2013-06-16 11:53:00,78.0,61.0,29.93,West,273,4.0,10.0,56,0.00,,,0.41,,2013-06-16 16:53:00,
2013-06-16 12:02:00,78.0,59.0,29.93,NW,312,3.0,11.0,52,0.00,,,0.41,,2013-06-16 17:02:00,
2013-06-16 12:12:00,78.0,59.0,29.93,NW,306,7.0,11.0,52,0.00,,,0.41,,2013-06-16 17:12:00,
2013-06-16 12:22:00,79.0,59.0,29.93,NNW,340,5.0,11.0,51,0.00,,,0.41,,2013-06-16 17:22:00,
2013-06-16 12:34:00,79.0,58.0,29.93,NNW,327,5.0,9.0,48,0.00,,,0.41,,2013-06-16 17:34:00,
2013-06-16 12:43:00,79.0,57.0,29.93,NW,322,8.0,13.0,47,0.00,,,0.41,,2013-06-16 17:43:00,
2013-06-16 12:53:00,79.0,56.0,29.93,West,263,5.0,13.0,45,0.00,,,0.41,,2013-06-16 17:53:00,
2013-06-16 13:02:00,79.0,54.0,29.93,WNW,294,8.0,17.0,42,0.00,,,0.41,,2013-06-16 18:02:00,
2013-06-16 13:12:00,80.0,56.0,29.93,West,271,3.0,16.0,44,0.00,,,0.41,,2013-06-16 18:12:00,
2013-06-16 13:22:00,80.0,55.0,29.93,NW,317,4.0,11.0,42,0.00,,,0.41,,2013-06-16 18:22:00,
2013-06-16 13:33:00,80.0,55.0,29.93,WNW,300,3.0,15.0,43,0.00,,,0.41,,2013-06-16 18:33:00,
2013-06-16 13:43:00,79.0,55.0,29.93,WNW,296,5.0,15.0,43,0.00,,,0.41,,2013-06-16 18:43:00,
2013-06-16 13:52:00,79.0,55.0,29.93,WNW,286,2.0,17.0,43,0.00,,,0.41,,2013-06-16 18:52:00,
2013-06-16 14:01:00,80.0,56.0,29.93,West,280,3.0,14.0,44,0.00,,,0.41,,2013-06-16 19:01:00,
2013-06-16 14:11:00,80.0,54.0,29.93,NW,309,10.0,14.0,41,0.00,,,0.41,,2013-06-16 19:11:00,
2013-06-16 14:22:00,80.0,55.0,29.93,West,279,7.0,14.0,42,0.00,,,0.41,,2013-06-16 19:22:00,
2013-06-16 14:34:00,80.0,53.0,29.93,ENE,61,1.0,12.0,40,0.00,,,0.41,,2013-06-16 19:34:00,
2013-06-16 14:43:00,81.0,56.0,29.93,SW,234,4.0,12.0,42,0.00,,,0.41,,2013-06-16 19:43:00,
2013-06-16 14:53:00,81.0,56.0,29.93,NW,308,3.0,9.0,42,0.00,,,0.41,,2013-06-16 19:53:00,
2013-06-16 15:02:00,81.0,55.0,29.93,NW,307,10.0,14.0,41,0.00,,,0.41,,2013-06-16 20:02:00,
2013-06-16 15:11:00,82.0,57.0,29.93,West,263,7.0,10.0,42,0.00,,,0.41,,2013-06-16 20:11:00,
2013-06-16 15:22:00,81.0,56.0,29.93,West,272,6.0,10.0,42,0.00,,,0.41,,2013-06-16 20:22:00,
2013-06-16 15:33:00,82.0,55.0,29.93,WNW,297,1.0,8.0,40,0.00,,,0.41,,2013-06-16 20:33:00,
2013-06-16 15:42:00,81.0,55.0,29.93,NW,315,8.0,10.0,41,0.00,,,0.41,,2013-06-16 20:42:00,
2013-06-16 15:53:00,81.0,55.0,29.93,WNW,290,4.0,10.0,41,0.00,,,0.41,,2013-06-16 20:53:00,
2013-06-16 16:01:00,82.0,57.0,29.93,NW,311,4.0,8.0,42,0.00,,,0.41,,2013-06-16 21:01:00,
2013-06-16 16:11:00,82.0,57.0,29.93,WNW,298,3.0,10.0,43,0.00,,,0.41,,2013-06-16 21:11:00,
2013-06-16 16:22:00,81.0,56.0,29.93,WNW,294,1.0,7.0,42,0.00,,,0.41,,2013-06-16 21:22:00,
2013-06-16 16:32:00,81.0,55.0,29.93,NW,306,3.0,10.0,41,0.00,,,0.41,,2013-06-16 21:32:00,
2013-06-16 16:42:00,81.0,56.0,29.93,WNW,292,2.0,14.0,42,0.00,,,0.41,,2013-06-16 21:42:00,
2013-06-16 16:53:00,80.0,55.0,29.93,NW,304,1.0,14.0,42,0.00,,,0.41,,2013-06-16 21:53:00,
2013-06-16 17:01:00,81.0,56.0,29.93,WNW,294,4.0,12.0,43,0.00,,,0.41,,2013-06-16 22:01:00,
2013-06-16 17:12:00,81.0,55.0,29.92,NW,307,4.0,9.0,41,0.00,,,0.41,,2013-06-16 22:12:00,
2013-06-16 17:22:00,81.0,57.0,29.92,WSW,250,1.0,9.0,44,0.00,,,0.41,,2013-06-16 22:22:00,
2013-06-16 17:32:00,82.0,57.0,29.92,WSW,238,4.0,7.0,42,0.00,,,0.41,,2013-06-16 22:32:00,
2013-06-16 17:42:00,81.0,54.0,29.91,WSW,242,4.0,9.0,40,0.00,,,0.41,,2013-06-16 22:42:00,
2013-06-16 17:52:00,82.0,56.0,29.91,WSW,253,6.0,10.0,41,0.00,,,0.41,,2013-06-16 22:52:00,
2013-06-16 18:01:00,82.0,57.0,29.91,SSW,209,3.0,6.0,42,0.00,,,0.41,,2013-06-16 23:01:00,
2013-06-16 18:11:00,81.0,55.0,29.91,WNW,288,3.0,10.0,41,0.00,,,0.41,,2013-06-16 23:11:00,
2013-06-16 18:22:00,81.0,56.0,29.91,WSW,240,3.0,7.0,43,0.00,,,0.41,,2013-06-16 23:22:00,
2013-06-16 18:32:00,81.0,56.0,29.91,WNW,298,1.0,7.0,42,0.00,,,0.41,,2013-06-16 23:32:00,
2013-06-16 18:42:00,81.0,56.0,29.91,NW,307,5.0,7.0,43,0.00,,,0.41,,2013-06-16 23:42:00,
2013-06-16 18:51:00,81.0,56.0,29.91,WNW,291,1.0,7.0,43,0.00,,,0.41,,2013-06-16 23:51:00,
2013-06-16 19:02:00,81.0,58.0,29.91,WSW,248,1.0,5.0,45,0.00,,,0.41,,2013-06-17 00:02:00,
2013-06-16 19:11:00,80.0,57.0,29.91,West,278,0.0,5.0,45,0.00,,,0.41,,2013-06-17 00:11:00,
2013-06-16 19:22:00,80.0,58.0,29.91,WSW,254,0.0,4.0,47,0.00,,,0.41,,2013-06-17 00:22:00,
2013-06-16 19:32:00,80.0,58.0,29.91,WSW,254,0.0,4.0,47,0.00,,,0.41,,2013-06-17 00:32:00,
2013-06-16 19:43:00,79.0,57.0,29.91,WSW,254,0.0,3.0,47,0.00,,,0.41,,2013-06-17 00:43:00,
2013-06-16 19:52:00,79.0,58.0,29.91,WSW,254,0.0,1.0,49,0.00,,,0.41,,2013-06-17 00:52:00,
2013-06-16 20:02:00,79.0,58.0,29.91,WSW,254,0.0,1.0,49,0.00,,,0.41,,2013-06-17 01:02:00,
2013-06-16 20:11:00,78.0,58.0,29.91,WSW,254,0.0,1.0,50,0.00,,,0.41,,2013-06-17 01:11:00,
2013-06-16 20:22:00,77.0,57.0,29.92,WSW,254,0.0,1.0,51,0.00,,,0.41,,2013-06-17 01:22:00,
2013-06-16 20:32:00,76.0,59.0,29.92,WSW,254,0.0,1.0,55,0.00,,,0.41,,2013-06-17 01:32:00,
2013-06-16 20:43:00,75.0,59.0,29.91,WSW,254,0.0,0.0,57,0.00,,,0.41,,2013-06-17 01:43:00,
2013-06-16 20:53:00,74.0,59.0,29.91,WSW,254,0.0,1.0,59,0.00,,,0.41,,2013-06-17 01:53:00,
2013-06-16 21:02:00,73.0,59.0,29.90,WSW,254,0.0,0.0,62,0.00,,,0.41,,2013-06-17 02:02:00,
2013-06-16 21:12:00,72.0,59.0,29.91,WSW,254,0.0,0.0,63,0.00,,,0.41,,2013-06-17 02:12:00,
2013-06-16 21:22:00,70.0,58.0,29.91,WSW,254,0.0,0.0,66,0.00,,,0.41,,2013-06-17 02:22:00,
2013-06-16 21:34:00,70.0,59.0,29.91,WSW,254,0.0,0.0,67,0.00,,,0.41,,2013-06-17 02:34:00,
2013-06-16 21:43:00,69.0,58.0,29.91,WSW,254,0.0,0.0,68,0.00,,,0.41,,2013-06-17 02:43:00,
2013-06-16 21:53:00,69.0,58.0,29.92,WSW,254,0.0,0.0,69,0.00,,,0.41,,2013-06-17 02:53:00,
2013-06-16 22:02:00,68.0,57.0,29.92,WSW,254,0.0,0.0,69,0.00,,,0.37,,2013-06-17 03:02:00,
2013-06-16 22:12:00,68.0,59.0,29.93,WSW,254,0.0,0.0,74,0.00,,,0.31,,2013-06-17 03:12:00,
2013-06-16 22:22:00,67.0,58.0,29.93,WSW,254,0.0,0.0,74,0.00,,,0.24,,2013-06-17 03:22:00,
2013-06-16 22:33:00,66.0,57.0,29.93,WSW,254,0.0,0.0,73,0.00,,,0.16,,2013-06-17 03:33:00,
2013-06-16 22:44:00,66.0,57.0,29.94,WSW,254,0.0,0.0,74,0.00,,,0.11,,2013-06-17 03:44:00,
2013-06-16 22:53:00,65.0,58.0,29.93,WSW,254,0.0,0.0,77,0.00,,,0.08,,2013-06-17 03:53:00,
2013-06-16 23:02:00,65.0,58.0,29.94,WSW,254,0.0,0.0,79,0.00,,,0.05,,2013-06-17 04:02:00,
2013-06-16 23:12:00,64.0,58.0,29.93,WSW,254,0.0,0.0,80,0.00,,,0.03,,2013-06-17 04:12:00,
2013-06-16 23:22:00,64.0,57.0,29.93,WSW,254,0.0,0.0,78,0.00,,,0.02,,2013-06-17 04:22:00,
2013-06-16 23:34:00,63.0,56.0,29.93,WSW,254,0.0,0.0,79,0.00,,,0.01,,2013-06-17 04:34:00,
2013-06-16 23:42:00,63.0,57.0,29.93,WSW,254,0.0,0.0,80,0.00,,,0.01,,2013-06-17 04:42:00,
2013-06-16 23:53:00,63.0,57.0,29.92,WSW,254,0.0,0.0,81,0.00,,,0.01,,2013-06-17 04:53:00,